Tracking 32963 objects as of 21-Jan-2026
HD Live streaming from Space Station
objects crossing your sky now

RADUGA 17

Track RADUGA 17 now!
RADUGA 17 is classified as:


NORAD ID: 16250
Int'l Code: 1985-107A
Perigee: 35,762.8 km
Apogee: 35,874.0 km
Inclination: 9.9 °
Period: 1,437.4 minutes
Semi major axis: 42189 km
RCS: 3.981 m2 (large)
Launch date: November 15, 1985
Source: Commonwealth of Independent States (former USSR) (CIS)
Launch site: TYURATAM MISSILE AND SPACE COMPLEX (TTMTR)
Your satellite tracking list
Your tracking list is empty




NASA's NSSDC Master Catalog

Two Line Element Set (TLE):
1 16250U 85107A   26020.67932145 -.00000253  00000-0  00000-0 0  9993
2 16250   9.8560 319.2824 0013170 240.5037 308.9131  1.00183854150197
Source of the keplerian elements: AFSPC